Broken Bow, NE

4:41 PM CDT on September 25, 2017 (GMT -0500)
Broken Bow Municipal

Weather History for KBBW - October, 2012

Change the Weather History Date:

Tuesday, October 30, 2012

  Actual Average Record
Temperature  
Mean Temperature 48 °F 44 °F  
Max Temperature 65 °F 57 °F 95 °F (1915)
Min Temperature 30 °F 31 °F 7 °F (1923)
Degree Days  
Heating Degree Days 17 21  
Month to date heating degree days 549 467  
Cooling Degree Days 0 0  
Month to date cooling degree days 0 2  
Year to date cooling degree days 1077 764  
Moisture  
Dew Point 33 °F    
Average Humidity 60    
Maximum Humidity 89    
Minimum Humidity 31    
Precipitation  
Precipitation 0.00 in 0.04 in 1.08 in (1959)
Sea Level Pressure  
Sea Level Pressure 30.01 in    
Wind  
Wind Speed 2 mph (East)    
Max Wind Speed 9 mph    
Max Gust Speed 23 mph    
Visibility 10 miles    
Events      
T = Trace of Precipitation, MM = Missing Value Source: NWS Daily Summary

Daily Weather History Graph

Daily Weather History Graph

Search for Another Location

Airport or City:

Trip Planner

Search our weather history database for the weather conditions in past years. The results will help you decide how hot, cold, wet, or windy it might be!

Date:

Astronomy

Oct. 30, 2012 Rise Set
Actual Time 8:08 AM CDT 6:35 PM CDT
Civil Twilight 7:39 AM CDT 7:04 PM CDT
Nautical Twilight 7:07 AM CDT 7:36 PM CDT
Astronomical Twilight 6:34 AM CDT 8:08 PM CDT
Moon 7:05 PM CDT (10/30) 8:57 AM CDT (10/30)
Length of Visible Light 11h 24m
Length of Day
10h 26m
Full, 99% of the Moon is Illuminated
Oct 30
Full
Nov 6
Last Quarter
Nov 13
New
Nov 20
First Quarter
Nov 28
Full

Hourly Weather History & Observations

Time (CDT) Temp. Windchill Dew Point Humidity Pressure Visibility Wind Dir Wind Speed Gust Speed Precip Events Conditions
12:53 AM 46.0 °F 44.8 °F 34.0 °F 63% 29.98 in 10.0 mi East 3.5 mph - N/A   Clear
1:53 AM 44.1 °F 41.5 °F 34.0 °F 68% 29.97 in 10.0 mi ESE 4.6 mph - N/A   Mostly Cloudy
2:53 AM 39.0 °F - 32.0 °F 76% 29.97 in 10.0 mi Calm Calm - N/A   Clear
3:53 AM 33.1 °F - 28.9 °F 85% 29.95 in 10.0 mi Calm Calm - N/A   Clear
4:53 AM 34.0 °F - 30.0 °F 85% 29.96 in 10.0 mi Calm Calm - N/A   Clear
5:53 AM 35.6 °F - 32.0 °F 87% 29.96 in 10.0 mi Calm Calm - N/A   Clear
6:53 AM 37.0 °F 34.5 °F 32.0 °F 82% 30.00 in 10.0 mi North 3.5 mph - N/A   Mostly Cloudy
7:53 AM 32.0 °F - 28.9 °F 88% 30.01 in 10.0 mi Calm Calm - N/A   Clear
8:53 AM 35.1 °F - 30.9 °F 85% 30.02 in 10.0 mi Calm Calm - N/A   Clear
9:53 AM 44.1 °F - 34.0 °F 68% 30.03 in 10.0 mi Calm Calm - N/A   Clear
10:53 AM 48.9 °F - 35.1 °F 59% 30.01 in 10.0 mi ESE 3.5 mph - N/A   Clear
11:53 AM 55.0 °F - 35.1 °F 47% 30.03 in 10.0 mi NNW 4.6 mph - N/A   Clear
12:53 PM 59.0 °F - 35.1 °F 41% 30.02 in 10.0 mi NE 6.9 mph - N/A   Clear
1:53 PM 63.0 °F - 35.1 °F 35% 30.00 in 10.0 mi Variable 3.5 mph - N/A   Clear
2:53 PM 63.0 °F - 35.1 °F 35% 29.99 in 10.0 mi Variable 5.8 mph - N/A   Clear
3:53 PM 64.0 °F - 34.0 °F 33% 29.99 in 10.0 mi ESE 5.8 mph - N/A   Clear
4:53 PM 64.0 °F - 34.0 °F 33% 30.00 in 10.0 mi SSE 3.5 mph - N/A   Clear
5:53 PM 61.0 °F - 36.0 °F 39% 30.00 in 10.0 mi SE 4.6 mph - N/A   Clear
6:53 PM 53.1 °F - 34.0 °F 48% 30.02 in 10.0 mi Calm Calm - N/A   Clear
7:53 PM 48.9 °F - 33.1 °F 54% 30.04 in 10.0 mi Calm Calm - N/A   Clear
8:53 PM 41.0 °F - 30.9 °F 67% 30.06 in 10.0 mi Calm Calm - N/A   Mostly Cloudy
9:53 PM 37.9 °F - 30.0 °F 73% 30.04 in 10.0 mi Calm Calm - N/A   Partly Cloudy
10:53 PM 39.9 °F - 32.0 °F 73% 30.04 in 10.0 mi Calm Calm - N/A   Scattered Clouds
11:53 PM 39.0 °F - 30.9 °F 73% 30.04 in 10.0 mi Calm Calm - N/A   Clear